K9BM Weather Reports


time (UTC)temp
F
wind
direction
speed
knots
gust
knots
rain 1hr
in
rain 24hr
in
rain mn
in
humidity
%
barometer
mb
20260507113005 49 249 8.7 14.8 0.00 0.06 0.06 79 1007.5
20260507112505 49 266 11.3 14.8 0.00 0.06 0.06 79 1007.7
20260507112005 49 249 11.3 13.9 0.00 0.06 0.06 79 1007.7
20260507111506 49 245 8.7 13.0 0.00 0.06 0.06 79 1007.6
20260507111004 49 262 8.7 13.0 0.00 0.06 0.06 80 1007.5
20260507105504 48 242 7.0 10.4 0.00 0.06 0.06 82 1008.1
20260507105005 48 248 7.0 10.4 0.00 0.06 0.06 84 1008.2
20260507104505 48 262 7.0 10.4 0.00 0.06 0.06 84 1007.9
20260507104005 48 268 4.3 10.4 0.00 0.06 0.06 84 1007.8
20260507103505 48 244 6.1 10.4 0.00 0.06 0.06 83 1007.8
20260507103004 49 243 7.0 10.4 0.00 0.06 0.06 82 1007.8
20260507102505 49 241 5.2 13.9 0.00 0.06 0.06 82 1007.7
20260507102006 49 242 8.7 13.9 0.00 0.06 0.06 81 1007.8
20260507101506 50 269 8.7 13.9 0.00 0.06 0.06 77 1008.0
20260507101004 50 257 11.3 14.8 0.00 0.06 0.06 76 1007.8
20260507100005 50 245 11.3 17.4 0.00 0.06 0.06 74 1007.9
20260507095504 51 254 11.3 17.4 0.00 0.06 0.06 74 1007.9
20260507095005 51 237 9.6 13.9 0.00 0.06 0.06 74 1007.7
20260507094505 51 242 10.4 13.9 0.00 0.06 0.06 73 1007.9
20260507094005 51 254 10.4 13.0 0.00 0.06 0.06 74 1008.0
20260507093505 50 236 8.7 13.0 0.00 0.06 0.06 75 1008.1
20260507093004 50 240 8.7 13.0 0.00 0.06 0.06 76 1008.1
20260507092505 50 245 10.4 13.9 0.00 0.06 0.06 76 1008.1
20260507091505 50 260 9.6 17.4 0.00 0.06 0.06 77 1008.3
20260507091004 50 249 11.3 17.4 0.00 0.06 0.06 78 1008.3
20260507090005 49 247 8.7 13.0 0.00 0.06 0.06 81 1008.5
20260507085505 49 267 9.6 13.0 0.00 0.06 0.06 82 1008.4
20260507085005 49 238 11.3 13.9 0.00 0.06 0.06 82 1008.0
20260507084504 49 245 8.7 13.9 0.00 0.06 0.06 83 1008.4
20260507084005 49 260 10.4 14.8 0.00 0.06 0.06 83 1008.6
20260507083505 49 243 10.4 14.8 0.00 0.06 0.06 83 1008.7
20260507083005 49 251 11.3 14.8 0.00 0.06 0.06 83 1009.0
20260507082505 49 241 6.1 10.4 0.00 0.06 0.06 84 1009.2
20260507082005 48 239 7.8 10.4 0.01 0.06 0.06 85 1009.1
20260507081505 48 245 7.8 10.4 0.01 0.06 0.06 85 1009.2
20260507081004 48 240 7.8 12.2 0.01 0.06 0.06 85 1009.3
20260507080004 49 226 5.2 8.7 0.02 0.06 0.06 84 1009.4
20260507075504 49 243 5.2 7.8 0.02 0.06 0.06 84 1009.6
20260507075004 49 200 4.3 7.8 0.03 0.06 0.06 84 1009.7
20260507074504 49 213 1.7 6.1 0.04 0.06 0.06 84 1009.7
20260507074004 49 205 2.6 6.1 0.06 0.06 0.06 84 1009.8
20260507073005 49 245 4.3 8.7 0.06 0.06 0.06 83 1010.0
20260507072505 49 272 4.3 10.4 0.06 0.06 0.06 82 1010.1
20260507072006 49 260 5.2 10.4 0.05 0.05 0.05 82 1010.1
20260507071504 49 282 3.5 6.1 0.05 0.05 0.05 82 1010.4
20260507071004 49 277 2.6 5.2 0.05 0.05 0.05 82 1010.3
20260507070009 50 260 1.7 6.1 0.04 0.04 0.04 79 1010.1
20260507065505 50 278 2.6 6.1 0.04 0.04 0.04 77 1010.1
20260507065005 51 333 2.6 7.0 0.03 0.03 0.03 76 1010.2
20260507064004 51 330 5.2 7.8 0.00 0.00 0.00 70 1009.8
20260507063505 52 340 5.2 8.7 0.00 0.00 0.00 70 1009.6
20260507062505 52 9 3.5 10.4 0.00 0.00 0.00 69 1009.3
20260507062004 53 346 6.1 14.8 0.00 0.00 0.00 67 1009.2
20260507061005 54 340 11.3 17.4 0.00 0.00 0.00 62 1009.6
20260507060004 55 328 12.2 26.1 0.00 0.00 0.00 59 1009.5
20260507055004 57 320 14.8 20.9 0.00 0.00 0.00 47 1009.2
20260507054505 58 309 8.7 13.9 0.00 0.00 0.00 41 1008.9
20260507053005 58 278 7.8 11.3 0.00 0.00 0.00 40 1008.4
20260507052004 58 258 7.8 10.4 0.00 0.00 0.00 39 1008.3
20260507051504 58 255 7.8 10.4 0.00 0.00 0.00 39 1008.3
20260507051004 58 248 7.8 10.4 0.00 0.00 0.00 39 1008.4
20260507050005 58 247 7.8 10.4 0.00 0.00 0.00 39 1008.5
20260507045005 58 245 8.7 10.4 0.00 0.00 0.00 39 1008.7
20260507044504 58 245 7.8 10.4 0.00 0.00 0.00 39 1008.8
20260507044004 59 253 7.8 10.4 0.00 0.00 0.00 38 1008.9
20260507043504 59 277 7.8 10.4 0.00 0.00 0.00 38 1009.0
20260507043004 60 271 7.8 10.4 0.00 0.00 0.00 37 1009.1
20260507042504 60 284 7.0 12.2 0.00 0.00 0.00 36 1009.1
20260507042005 60 284 8.7 12.2 0.00 0.00 0.00 35 1009.0
20260507041504 60 299 8.7 12.2 0.00 0.00 0.00 35 1009.1
20260507041004 60 288 7.8 11.3 0.00 0.00 0.00 35 1009.1
20260507040005 61 278 7.8 12.2 0.00 0.00 0.00 34 1009.2
20260507035504 61 297 8.7 13.9 0.00 0.00 0.00 34 1009.3
20260507035005 61 302 7.8 13.9 0.00 0.00 0.00 33 1009.3
20260507034505 61 297 8.7 15.6 0.00 0.00 0.00 33 1009.2
20260507034005 61 287 11.3 15.6 0.00 0.00 0.00 34 1009.2
20260507033504 61 295 10.4 22.6 0.00 0.00 0.00 34 1009.4
20260507033004 61 279 12.2 22.6 0.00 0.00 0.00 35 1009.4
20260507032004 61 297 9.6 21.7 0.00 0.00 0.00 35 1009.2
20260507031504 61 305 13.9 21.7 0.00 0.00 0.00 35 1009.5
20260507031004 60 294 10.4 13.0 0.00 0.00 0.00 35 1009.3
20260507030004 60 275 7.8 10.4 0.00 0.00 0.00 35 1009.0
20260507025504 60 262 7.8 11.3 0.00 0.00 0.00 35 1009.0
20260507025004 61 268 8.7 12.2 0.00 0.00 0.00 34 1009.0
20260507024504 61 272 8.7 13.0 0.00 0.00 0.00 33 1009.0
20260507023504 61 259 8.7 12.2 0.00 0.00 0.00 33 1009.0
20260507023004 62 282 7.8 12.2 0.00 0.00 0.00 33 1009.0
20260507022504 62 284 7.8 12.2 0.00 0.00 0.00 32 1009.0
20260507021504 62 285 7.8 13.9 0.00 0.00 0.00 32 1009.0
20260507021004 62 281 10.4 13.9 0.00 0.00 0.00 31 1009.0
20260507020004 63 281 8.7 14.8 0.00 0.00 0.00 31 1009.1
20260507015005 64 284 8.7 15.6 0.00 0.00 0.00 30 1009.2
20260507014005 64 283 11.3 18.2 0.00 0.00 0.00 30 1009.3
20260507013504 64 290 11.3 21.7 0.00 0.00 0.00 29 1009.3
20260507013004 65 297 14.8 21.7 0.00 0.00 0.00 28 1009.4
20260507012504 65 295 13.0 17.4 0.00 0.00 0.00 28 1009.4
20260507012004 65 289 11.3 18.2 0.00 0.00 0.00 29 1009.5
20260507011504 65 302 12.2 22.6 0.00 0.00 0.00 28 1009.6
20260507011004 65 288 15.6 22.6 0.00 0.00 0.00 28 1009.7
20260507010004 65 292 11.3 20.9 0.00 0.00 0.00 28 1009.7
20260507005504 65 300 14.8 20.9 0.00 0.00 0.00 28 1009.7
20260507005004 65 287 10.4 20.9 0.00 0.00 0.00 29 1009.7
20260507004504 65 298 13.9 21.7 0.00 0.00 0.00 28 1009.9
20260507004004 65 283 13.9 22.6 0.00 0.00 0.00 28 1009.8
20260507003504 65 295 12.2 22.6 0.00 0.00 0.00 29 1009.9
20260507003004 64 298 11.3 21.7 0.00 0.00 0.00 29 1010.0
20260507002503 64 298 14.8 25.2 0.00 0.00 0.00 29 1010.0
20260507001504 64 292 11.3 21.7 0.00 0.00 0.00 28 1010.2
20260507001004 65 312 11.3 24.3 0.00 0.00 0.00 28 1010.2
20260507000004 65 304 11.3 19.1 0.00 0.00 0.00 28 1010.4
20260506235004 65 305 17.4 26.1 0.00 0.00 0.00 27 1010.6
20260506234504 65 307 13.0 21.7 0.00 0.00 0.00 27 1010.6
20260506234006 65 303 14.8 22.6 0.00 0.00 0.00 27 1010.6
20260506233507 65 310 15.6 22.6 0.00 0.00 0.00 27 1010.8
20260506233006 65 301 13.9 24.3 0.00 0.00 0.00 27 1010.8
20260506232505 65 315 15.6 24.3 0.00 0.00 0.00 27 1010.9
20260506232006 65 309 14.8 25.2 0.00 0.00 0.00 27 1011.0
20260506231506 64 303 17.4 25.2 0.00 0.00 0.00 27 1011.1
20260506231006 64 278 17.4 27.8 0.00 0.00 0.00 27 1011.1
20260506230006 64 302 14.8 26.9 0.00 0.00 0.00 26 1011.2
20260506225506 64 285 17.4 24.3 0.00 0.00 0.00 25 1011.3
20260506225007 64 293 17.4 22.6 0.00 0.00 0.00 25 1011.4
20260506224506 64 284 14.8 22.6 0.00 0.00 0.00 25 1011.4
20260506224006 64 301 15.6 24.3 0.00 0.00 0.00 25 1011.6
20260506222506 63 284 17.4 26.1 0.00 0.00 0.00 25 1012.1
20260506222007 63 288 14.8 26.1 0.00 0.00 0.00 26 1012.1
20260506221506 63 290 14.8 26.1 0.00 0.00 0.00 26 1012.2
20260506221006 63 281 15.6 25.2 0.00 0.00 0.00 25 1012.4
20260506220006 63 296 18.2 25.2 0.00 0.00 0.00 26 1012.4
20260506215506 63 275 14.8 25.2 0.00 0.00 0.00 26 1012.5
20260506215007 63 277 15.6 25.2 0.00 0.00 0.00 27 1012.5
20260506214506 62 276 15.6 26.9 0.00 0.00 0.00 26 1012.6
20260506214006 62 292 18.2 26.9 0.00 0.00 0.00 27 1012.7
20260506213506 62 305 18.2 22.6 0.00 0.00 0.00 28 1012.7
20260506213006 62 275 16.5 25.2 0.00 0.00 0.00 28 1012.8
20260506212506 62 286 16.5 25.2 0.00 0.00 0.00 28 1013.0
20260506212006 61 285 15.6 22.6 0.00 0.00 0.00 29 1012.9
20260506211006 61 284 17.4 22.6 0.00 0.00 0.00 27 1013.3
20260506210006 60 300 13.9 21.7 0.00 0.00 0.00 27 1013.4
20260506205506 60 272 13.9 25.2 0.00 0.00 0.00 27 1013.6
20260506204506 60 297 13.9 25.2 0.00 0.00 0.00 28 1013.8
20260506204006 59 249 13.9 22.6 0.00 0.00 0.00 28 1013.9
20260506203506 59 287 14.8 22.6 0.00 0.00 0.00 28 1014.1
20260506203006 59 261 15.6 22.6 0.00 0.00 0.00 27 1014.2
20260506202505 59 266 13.9 22.6 0.00 0.00 0.00 27 1014.3
20260506202006 58 270 13.9 20.9 0.00 0.00 0.00 28 1014.3
20260506201505 58 268 13.9 22.6 0.00 0.00 0.00 26 1014.5
20260506201006 58 251 16.5 22.6 0.00 0.00 0.00 27 1014.5
20260506200006 58 262 13.9 20.0 0.00 0.00 0.00 27 1014.7
20260506195506 57 288 11.3 22.6 0.00 0.00 0.00 29 1014.8
20260506195006 57 252 13.9 22.6 0.00 0.00 0.00 27 1014.9
20260506194506 57 279 14.8 22.6 0.00 0.00 0.00 28 1015.0
20260506194006 56 261 13.0 22.6 0.00 0.00 0.00 28 1015.0
20260506193506 56 276 17.4 22.6 0.00 0.00 0.00 28 1015.3
20260506193006 56 263 12.2 24.3 0.00 0.01 0.00 29 1015.4
20260506192506 56 274 15.6 24.3 0.00 0.01 0.00 28 1015.5
20260506192006 56 285 14.8 24.3 0.00 0.01 0.00 29 1015.4
20260506191506 55 276 15.6 22.6 0.00 0.01 0.00 28 1015.4
20260506191006 54 269 16.5 22.6 0.00 0.01 0.00 28 1015.7
20260506190006 54 275 14.8 22.6 0.00 0.01 0.00 29 1015.8
20260506185506 54 274 15.6 24.3 0.00 0.01 0.00 29 1015.8
20260506185006 54 241 13.9 24.3 0.00 0.01 0.00 30 1016.0
20260506184506 54 274 14.8 21.7 0.00 0.01 0.00 30 1016.1
20260506183006 53 238 14.8 22.6 0.00 0.01 0.00 30 1016.2
20260506182506 52 267 13.9 21.7 0.00 0.01 0.00 31 1016.4
20260506182005 52 257 12.2 22.6 0.00 0.01 0.00 34 1016.5
20260506181506 51 263 14.8 24.3 0.00 0.01 0.00 30 1016.6
20260506181006 51 252 14.8 24.3 0.00 0.01 0.00 32 1016.7
20260506180006 51 260 15.6 22.6 0.00 0.01 0.00 32 1016.9
20260506175506 50 262 14.8 22.6 0.00 0.01 0.00 32 1017.1
20260506175006 50 251 15.6 22.6 0.00 0.01 0.00 31 1017.1
20260506174506 50 249 14.8 22.6 0.00 0.01 0.00 33 1017.2
20260506174005 49 256 14.8 22.6 0.00 0.01 0.00 31 1017.4
20260506173506 49 264 13.9 22.6 0.00 0.01 0.00 31 1017.5
20260506173007 49 261 14.8 22.6 0.00 0.01 0.00 31 1017.5
20260506172506 49 275 14.8 22.6 0.00 0.01 0.00 32 1017.6
20260506172006 48 265 16.5 22.6 0.00 0.01 0.00 31 1017.6
20260506171506 48 254 16.5 22.6 0.00 0.01 0.00 31 1017.7
20260506170005 48 250 13.9 22.6 0.00 0.01 0.00 34 1017.8
20260506165506 48 254 16.5 22.6 0.00 0.01 0.00 31 1018.0
20260506165006 48 281 14.8 20.0 0.00 0.01 0.00 33 1018.0
20260506164006 47 280 14.8 20.0 0.00 0.01 0.00 33 1018.1
20260506163506 47 268 13.0 17.4 0.00 0.01 0.00 35 1018.1
20260506163006 46 275 11.3 18.2 0.00 0.01 0.00 38 1018.3
20260506162506 46 265 12.2 18.2 0.00 0.01 0.00 38 1018.4
20260506162006 45 260 13.9 22.6 0.00 0.01 0.00 38 1018.5
20260506161006 44 254 13.9 22.6 0.00 0.01 0.00 41 1018.6
20260506160005 44 255 12.2 17.4 0.00 0.01 0.00 45 1018.7
20260506155506 43 266 12.2 17.4 0.00 0.01 0.00 45 1018.7
20260506155006 43 276 13.9 17.4 0.00 0.01 0.00 43 1018.7
20260506154506 43 268 12.2 20.0 0.00 0.01 0.00 47 1018.8
20260506154007 42 264 12.2 20.0 0.00 0.01 0.00 47 1018.8
20260506153506 42 259 12.2 18.2 0.00 0.01 0.00 47 1018.9
20260506153006 42 257 11.3 15.6 0.00 0.01 0.00 48 1018.8
20260506152506 42 267 10.4 14.8 0.00 0.01 0.00 51 1018.9
20260506151505 41 255 11.3 14.8 0.00 0.01 0.00 49 1018.9
20260506151006 41 255 8.7 14.8 0.00 0.01 0.00 53 1019.0
20260506150005 39 258 8.7 12.2 0.00 0.01 0.00 59 1019.1
20260506145506 39 260 7.8 10.4 0.00 0.01 0.00 62 1019.2
20260506144006 37 271 7.8 12.2 0.00 0.01 0.00 66 1019.4
20260506143506 37 273 8.7 12.2 0.00 0.01 0.00 66 1019.5
20260506142505 36 258 6.1 10.4 0.00 0.01 0.00 67 1019.5
20260506142006 36 272 7.8 8.7 0.00 0.01 0.00 68 1019.6
20260506141506 36 248 6.1 8.7 0.00 0.01 0.00 69 1019.6
20260506141006 35 250 6.1 8.7 0.00 0.01 0.00 67 1019.6
20260506140006 34 234 4.3 6.1 0.00 0.01 0.00 68 1019.7
20260506135512 34 237 4.3 7.8 0.00 0.01 0.00 69 1019.7
20260506135006 33 234 5.2 8.7 0.00 0.01 0.00 68 1019.8
20260506134506 33 231 6.1 8.7 0.00 0.01 0.00 68 1019.8
20260506134006 33 227 5.2 8.7 0.00 0.01 0.00 69 1019.8
20260506133506 32 211 5.2 8.7 0.00 0.01 0.00 69 1019.9
20260506133006 32 232 6.1 8.7 0.00 0.01 0.00 70 1019.8
20260506132506 32 231 6.1 8.7 0.00 0.01 0.00 71 1019.8
20260506132006 31 233 7.0 8.7 0.00 0.01 0.00 71 1019.8
20260506131506 31 227 5.2 7.8 0.00 0.01 0.00 72 1019.8
20260506131006 31 212 4.3 8.7 0.00 0.01 0.00 73 1019.8
20260506130006 30 204 6.1 8.7 0.00 0.01 0.00 73 1019.8
20260506125506 30 218 5.2 8.7 0.00 0.01 0.00 74 1019.7
20260506125006 30 208 5.2 7.8 0.00 0.01 0.00 74 1019.7
20260506124505 29 223 4.3 8.7 0.00 0.01 0.00 75 1019.8
20260506124006 29 208 5.2 8.7 0.00 0.01 0.00 75 1019.8
20260506123506 29 207 5.2 7.8 0.00 0.01 0.00 76 1019.8
20260506123006 28 208 5.2 7.8 0.00 0.01 0.00 77 1019.8
20260506122505 28 230 5.2 7.0 0.00 0.01 0.00 78 1019.8
20260506122006 28 237 5.2 7.0 0.00 0.01 0.00 78 1019.8
20260506121506 27 240 5.2 7.0 0.00 0.01 0.00 78 1019.7
20260506121006 27 234 5.2 7.0 0.00 0.01 0.00 78 1019.7
20260506120005 27 231 5.2 6.1 0.00 0.01 0.00 78 1019.8
20260506115505 28 235 4.3 6.1 0.00 0.01 0.00 78 1019.7
20260506115006 28 233 4.3 7.0 0.00 0.01 0.00 77 1019.7
20260506114006 28 234 5.2 7.0 0.00 0.01 0.00 77 1019.7